This demonstration page uses our WeatherBlox Daily Observations layout. Learn more.

Left ArrowRight Arrow

36.17497, -115.13722

Hourly Observations for October 16, 2019

Temp ( °F °C ) Dew Point ( °F °C ) Humidity (%) Winds ( mph kmh ) Pressure ( in mb ) Visibility ( mi km ) Precip ( " mm )
12:53 am 00:53 Clear 63 17.2 25 -3.9 24 24 N 5 7 30.06 1018 10 16.0934 N/A
1:53 am 01:53 Clear 60 15.6 24 -4.4 25 25 NW 5 7 30.07 1018 10 16.0934 N/A
2:53 am 02:53 Clear 60 15.6 25 -3.9 26 26 NW 7 11 30.06 1018 10 16.0934 N/A
3:53 am 03:53 Clear 59 15 24 -4.4 26 26 WNW 7 11 30.04 1017 10 16.0934 N/A
4:53 am 04:53 Clear 60 15.6 22 -5.6 23 23 WNW 5 7 30.05 1018 10 16.0934 N/A
5:53 am 05:53 Clear 58 14.4 25 -3.9 28 28 SSE 3 6 30.07 1018 10 16.0934 N/A
6:53 am 06:53 Sunny 58 14.4 26 -3.3 29 29 W 5 7 30.09 1019 10 16.0934 N/A
7:53 am 07:53 Sunny 62 16.7 20 -6.7 20 20 NNW 8 13 30.1 1019 10 16.0934 N/A
8:53 am 08:53 Sunny 67 19.4 26 -3.3 21 21 N N/A 30.11 1020 10 16.0934 N/A
9:53 am 09:53 Sunny 71 21.7 27 -2.8 19 19 N N/A 30.1 1019 10 16.0934 N/A
10:53 am 10:53 Sunny 75 23.9 24 -4.4 15 15 S 3 6 30.08 1019 10 16.0934 N/A
11:53 am 11:53 Sunny 78 25.6 18 -7.8 10 10 N N/A 30.05 1018 10 16.0934 N/A
12:53 pm 12:53 Sunny 81 27.2 18 -7.8 9 9 SE 6 9 30.01 1016 10 16.0934 N/A
1:53 pm 13:53 Sunny 83 28.3 19 -7.2 9 9 VRB 5 7 29.96 1015 10 16.0934 N/A
2:53 pm 14:53 Sunny 85 29.4 20 -6.7 9 9 VRB 6 9 29.92 1013 10 16.0934 N/A
3:53 pm 15:53 Sunny 85 29.4 22 -5.6 10 10 ESE 5 7 29.9 1013 10 16.0934 N/A
4:53 pm 16:53 Sunny 85 29.4 23 -5 10 10 ESE 3 6 29.87 1012 10 16.0934 N/A
5:53 pm 17:53 Sunny 81 27.2 24 -4.4 12 12 ESE 6 9 29.86 1011 10 16.0934 N/A
6:53 pm 18:53 Clear 80 26.7 26 -3.3 14 14 W 3 6 29.85 1011 10 16.0934 N/A
7:53 pm 19:53 Clear 75 23.9 29 -1.7 18 18 N N/A 29.85 1011 10 16.0934 N/A
8:53 pm 20:53 Clear 73 22.8 30 -1.1 20 20 WNW 5 7 29.85 1011 10 16.0934 N/A
9:53 pm 21:53 Clear 71 21.7 30 -1.1 22 22 NW 3 6 29.85 1011 10 16.0934 N/A
10:53 pm 22:53 Clear 70 21.1 32 undefined 25 25 W 5 7 29.83 1010 9 14.48406 N/A
11:53 pm 23:53 Clear 68 20 32 undefined 26 26 W 5 7 29.82 1010 10 16.0934 N/A

Powered by AerisWeather